CFG9CV EDDM-LEPA

Flight info

Callsign CFG9CV
Flight time 2h 0m
Altitude 33000
Route TURBU7S/26L TURBU Y107 TOBSO DCT BAKOR DCT SUMIR DCT MISPO DCT PIDAD DCT TALEP DCT RARQU DCT BALEN UT250 RIXOT
Aircraft A21N/M-SDE2E3FGHIJ1RWXY/LB1

Departure

Time 2026-05-07 17:00
Airport Munich Airport (EDDM)

Arrival

Time 2026-05-07 19:00
Airport Palma de Mallorca Airport (LEPA)
Time Latitude Longitude Altitude Speed Heading
2026-05-07 16:20 48.35089 11.78345 1381 ft 0 kts 83°
2026-05-07 16:30 48.35089 11.78348 1491 ft 1 kts 83°
2026-05-07 16:31 48.35089 11.78351 1491 ft 0 kts 83°
2026-05-07 16:43 48.35089 11.78350 1491 ft 1 kts 83°
2026-05-07 16:43 48.35086 11.78315 1478 ft 4 kts 83°
2026-05-07 16:44 48.35084 11.78283 1476 ft 3 kts 83°
2026-05-07 16:44 48.35077 11.78245 1475 ft 4 kts 59°
2026-05-07 16:44 48.35060 11.78219 1475 ft 4 kts 21°
2026-05-07 16:44 48.35036 11.78215 1475 ft 4 kts 353°
2026-05-07 16:45 48.35018 11.78218 1483 ft 0 kts 353°
2026-05-07 16:45 48.35015 11.78219 1483 ft 0 kts 353°
2026-05-07 16:48 48.35016 11.78218 1483 ft 1 kts 353°
2026-05-07 16:49 48.35035 11.78215 1475 ft 5 kts 353°
2026-05-07 16:49 48.35079 11.78208 1480 ft 8 kts 354°
2026-05-07 16:49 48.35149 11.78197 1491 ft 12 kts 354°
2026-05-07 16:49 48.35200 11.78101 1487 ft 16 kts 265°
2026-05-07 16:50 48.35188 11.77921 1488 ft 19 kts 258°
2026-05-07 16:50 48.35083 11.77830 1491 ft 20 kts 177°
2026-05-07 16:50 48.34944 11.77852 1485 ft 18 kts 173°
2026-05-07 16:50 48.34837 11.77871 1491 ft 14 kts 173°
2026-05-07 16:51 48.34765 11.77883 1491 ft 10 kts 173°
2026-05-07 16:51 48.34737 11.77889 1480 ft 0 kts 172°
2026-05-07 16:54 48.34736 11.77889 1491 ft 1 kts 172°
2026-05-07 16:54 48.34727 11.77891 1491 ft 2 kts 172°
2026-05-07 16:54 48.34709 11.77894 1488 ft 3 kts 172°
2026-05-07 16:55 48.34683 11.77901 1480 ft 5 kts 155°
2026-05-07 16:55 48.34669 11.77933 1491 ft 6 kts 105°
2026-05-07 16:55 48.34676 11.78053 1491 ft 11 kts 83°
2026-05-07 16:55 48.34687 11.78193 1488 ft 15 kts 83°
2026-05-07 16:56 48.34701 11.78372 1491 ft 19 kts 83°
2026-05-07 16:56 48.34712 11.78515 1483 ft 22 kts 83°
2026-05-07 16:56 48.34752 11.79035 1487 ft 28 kts 83°
2026-05-07 16:57 48.34774 11.79327 1487 ft 28 kts 83°
2026-05-07 16:57 48.34797 11.79625 1478 ft 29 kts 83°
2026-05-07 16:57 48.34820 11.79933 1491 ft 30 kts 83°
2026-05-07 16:57 48.34791 11.80200 1491 ft 27 kts 139°
2026-05-07 16:58 48.34640 11.80255 1491 ft 14 kts 174°
2026-05-07 16:58 48.34585 11.80265 1482 ft 2 kts 171°
2026-05-07 16:58 48.34583 11.80266 1482 ft 0 kts 171°
2026-05-07 16:58 48.34569 11.80269 1485 ft 4 kts 171°
2026-05-07 16:59 48.34526 11.80278 1478 ft 8 kts 176°
2026-05-07 16:59 48.34467 11.80235 1477 ft 12 kts 250°
2026-05-07 16:59 48.34445 11.80016 1485 ft 46 kts 262°
2026-05-07 16:59 48.34375 11.79080 1487 ft 135 kts 264°
2026-05-07 17:00 48.34238 11.77290 1615 ft 201 kts 265°
2026-05-07 17:00 48.34078 11.75161 2830 ft 209 kts 264°
2026-05-07 17:00 48.33870 11.73015 3652 ft 212 kts 253°
2026-05-07 17:00 48.32980 11.71214 4187 ft 224 kts 212°
2026-05-07 17:01 48.31523 11.70512 4951 ft 226 kts 186°
2026-05-07 17:01 48.29942 11.70537 5667 ft 228 kts 179°
2026-05-07 17:01 48.28370 11.70988 6317 ft 236 kts 160°
2026-05-07 17:01 48.26888 11.72309 6646 ft 260 kts 147°
2026-05-07 17:02 48.25368 11.73964 6982 ft 281 kts 146°
2026-05-07 17:02 48.23763 11.75693 7446 ft 286 kts 147°
2026-05-07 17:02 48.22124 11.77417 8199 ft 289 kts 148°
2026-05-07 17:02 48.20464 11.79137 8962 ft 291 kts 149°
2026-05-07 17:03 48.18778 11.80856 9701 ft 294 kts 150°
2026-05-07 17:03 48.16960 11.82240 10303 ft 297 kts 163°
2026-05-07 17:03 48.14954 11.83265 10623 ft 313 kts 166°
2026-05-07 17:03 48.12851 11.84274 10882 ft 331 kts 166°
2026-05-07 17:04 48.10616 11.85358 11318 ft 341 kts 165°
2026-05-07 17:04 48.08349 11.86474 11956 ft 345 kts 165°
2026-05-07 17:04 48.06057 11.87607 12636 ft 348 kts 165°
2026-05-07 17:04 48.03747 11.88753 13312 ft 352 kts 165°
2026-05-07 17:05 48.01413 11.89911 13988 ft 355 kts 165°
2026-05-07 17:05 47.99062 11.91076 14578 ft 358 kts 165°
2026-05-07 17:05 47.96678 11.92256 15160 ft 362 kts 165°
2026-05-07 17:05 47.94275 11.93444 15723 ft 366 kts 165°
2026-05-07 17:06 47.91825 11.94553 16274 ft 368 kts 171°
2026-05-07 17:06 47.89278 11.94970 16811 ft 368 kts 182°
2026-05-07 17:06 47.86704 11.94919 17366 ft 372 kts 185°
2026-05-07 17:06 47.84103 11.94805 17911 ft 375 kts 185°
2026-05-07 17:07 47.81479 11.94708 18435 ft 379 kts 184°
2026-05-07 17:07 47.78829 11.94637 18878 ft 383 kts 184°
2026-05-07 17:07 47.76154 11.94578 19356 ft 386 kts 184°
2026-05-07 17:07 47.73463 11.94527 19846 ft 388 kts 184°
2026-05-07 17:08 47.70746 11.94473 20333 ft 391 kts 184°
2026-05-07 17:08 47.68056 11.94424 20812 ft 393 kts 183°
2026-05-07 17:08 47.65313 11.94379 21286 ft 395 kts 184°
2026-05-07 17:08 47.62552 11.94334 21748 ft 398 kts 184°
2026-05-07 17:09 47.59776 11.94287 22178 ft 401 kts 183°
2026-05-07 17:09 47.56981 11.94238 22615 ft 404 kts 183°
2026-05-07 17:09 47.54154 11.94190 23052 ft 407 kts 183°
2026-05-07 17:09 47.51316 11.94139 23483 ft 409 kts 183°
2026-05-07 17:10 47.48459 11.94089 23855 ft 411 kts 183°
2026-05-07 17:10 47.45590 11.94041 24222 ft 413 kts 183°
2026-05-07 17:10 47.42716 11.93899 24586 ft 413 kts 188°
2026-05-07 17:10 47.39869 11.93388 24954 ft 413 kts 190°
2026-05-07 17:11 47.37021 11.92807 25275 ft 415 kts 191°
2026-05-07 17:11 47.34149 11.92215 25578 ft 417 kts 190°
2026-05-07 17:11 47.31264 11.91627 25888 ft 419 kts 190°
2026-05-07 17:11 47.28370 11.91046 26221 ft 421 kts 190°
2026-05-07 17:12 47.25464 11.90473 26558 ft 422 kts 190°
2026-05-07 17:12 47.22546 11.89898 26900 ft 424 kts 190°
2026-05-07 17:12 47.19616 11.89313 27225 ft 425 kts 190°
2026-05-07 17:12 47.16716 11.88735 27536 ft 426 kts 191°
2026-05-07 17:13 47.13767 11.88152 27845 ft 428 kts 191°
2026-05-07 17:13 47.10807 11.87570 28173 ft 429 kts 191°
2026-05-07 17:13 47.07826 11.86981 28462 ft 431 kts 191°
2026-05-07 17:13 47.04881 11.86401 28786 ft 432 kts 191°
2026-05-07 17:14 47.01898 11.85790 29058 ft 433 kts 193°
2026-05-07 17:14 46.98945 11.84919 29370 ft 433 kts 195°
2026-05-07 17:14 46.95994 11.83978 29635 ft 435 kts 196°
2026-05-07 17:14 46.93037 11.83028 29924 ft 435 kts 196°
2026-05-07 17:15 46.90085 11.82085 30239 ft 434 kts 196°
2026-05-07 17:15 46.87134 11.81148 30500 ft 433 kts 196°
2026-05-07 17:15 46.84188 11.80216 30774 ft 433 kts 196°
2026-05-07 17:15 46.81253 11.79288 31056 ft 432 kts 197°
2026-05-07 17:16 46.78315 11.78358 31306 ft 431 kts 197°
2026-05-07 17:16 46.75389 11.77434 31529 ft 430 kts 198°
2026-05-07 17:16 46.72470 11.76511 31777 ft 429 kts 198°
2026-05-07 17:16 46.69549 11.75583 32014 ft 429 kts 198°
2026-05-07 17:17 46.66628 11.74658 32252 ft 428 kts 198°
2026-05-07 17:17 46.63719 11.73725 32505 ft 426 kts 199°
2026-05-07 17:17 46.60958 11.72429 32681 ft 419 kts 209°
2026-05-07 17:17 46.58447 11.70389 32903 ft 411 kts 219°
2026-05-07 17:18 46.53853 11.65478 32991 ft 409 kts 222°
2026-05-07 17:18 46.49276 11.60564 32973 ft 409 kts 221°
2026-05-07 17:19 46.44671 11.55697 32957 ft 409 kts 221°
2026-05-07 17:19 46.40070 11.50856 32981 ft 409 kts 221°
2026-05-07 17:20 46.35487 11.46042 32991 ft 404 kts 221°
2026-05-07 17:20 46.30934 11.41264 33011 ft 404 kts 221°
2026-05-07 17:21 46.26407 11.36523 33010 ft 404 kts 221°
2026-05-07 17:21 46.21872 11.31719 33011 ft 404 kts 222°
2026-05-07 17:22 46.17335 11.26892 33020 ft 404 kts 222°
2026-05-07 17:22 46.12807 11.22090 33061 ft 404 kts 222°
2026-05-07 17:23 46.08265 11.17283 33063 ft 406 kts 221°
2026-05-07 17:23 46.03699 11.12465 33058 ft 406 kts 221°
2026-05-07 17:24 45.99162 11.07688 33025 ft 404 kts 222°
2026-05-07 17:24 45.94631 11.02926 33026 ft 403 kts 222°
2026-05-07 17:25 45.90122 10.98194 33023 ft 405 kts 222°
2026-05-07 17:25 45.85583 10.93445 33022 ft 403 kts 222°
2026-05-07 17:26 45.81042 10.88699 33010 ft 403 kts 221°
2026-05-07 17:26 45.76508 10.83978 33013 ft 402 kts 221°
2026-05-07 17:27 45.71981 10.79268 32983 ft 402 kts 221°
2026-05-07 17:27 45.67455 10.74572 32980 ft 402 kts 221°
2026-05-07 17:28 45.62931 10.69884 32962 ft 401 kts 221°
2026-05-07 17:28 45.58410 10.65207 32959 ft 401 kts 221°
2026-05-07 17:29 45.53884 10.60537 32961 ft 401 kts 221°
2026-05-07 17:29 45.49361 10.55877 32962 ft 401 kts 221°
2026-05-07 17:30 45.44833 10.51224 32960 ft 401 kts 221°
2026-05-07 17:30 45.40301 10.46573 32966 ft 401 kts 221°
2026-05-07 17:31 45.35781 10.41950 32966 ft 400 kts 221°
2026-05-07 17:31 45.31282 10.37359 32962 ft 401 kts 221°
2026-05-07 17:32 45.26761 10.32751 32954 ft 399 kts 221°
2026-05-07 17:32 45.22977 10.28902 32951 ft 399 kts 221°
2026-05-07 17:33 45.17723 10.23564 32946 ft 399 kts 221°
2026-05-07 17:33 45.13201 10.18981 32957 ft 399 kts 221°
2026-05-07 17:34 45.08687 10.14419 32955 ft 398 kts 220°
2026-05-07 17:34 45.04172 10.09859 32961 ft 398 kts 220°
2026-05-07 17:35 44.99664 10.05311 32965 ft 398 kts 220°
2026-05-07 17:35 44.95151 10.00761 32949 ft 398 kts 220°
2026-05-07 17:36 44.90648 9.96226 32943 ft 397 kts 220°
2026-05-07 17:36 44.86141 9.91702 32944 ft 397 kts 220°
2026-05-07 17:37 44.81641 9.87191 32943 ft 397 kts 220°
2026-05-07 17:37 44.77169 9.82719 32939 ft 398 kts 220°
2026-05-07 17:38 44.72682 9.78236 32952 ft 395 kts 220°
2026-05-07 17:38 44.68191 9.73756 32958 ft 395 kts 220°
2026-05-07 17:39 44.63698 9.69281 32973 ft 396 kts 220°
2026-05-07 17:39 44.59205 9.64821 32978 ft 395 kts 220°
2026-05-07 17:40 44.54722 9.60380 32982 ft 394 kts 220°
2026-05-07 17:40 44.50278 9.55987 32990 ft 393 kts 220°
2026-05-07 17:41 44.45797 9.51561 32979 ft 395 kts 220°
2026-05-07 17:41 44.41315 9.47148 32992 ft 394 kts 220°
2026-05-07 17:42 44.37585 9.43481 33010 ft 393 kts 220°
2026-05-07 17:42 44.33113 9.39091 33004 ft 393 kts 220°
2026-05-07 17:43 44.28636 9.34704 32992 ft 393 kts 220°
2026-05-07 17:43 44.24159 9.30323 32994 ft 393 kts 220°
2026-05-07 17:44 44.19715 9.25988 32991 ft 391 kts 220°
2026-05-07 17:44 44.15256 9.21641 32990 ft 391 kts 220°
2026-05-07 17:45 44.10793 9.17302 32990 ft 391 kts 220°
2026-05-07 17:45 44.06324 9.12966 32989 ft 391 kts 220°
2026-05-07 17:46 44.01874 9.08657 32999 ft 389 kts 220°
2026-05-07 17:46 43.97467 9.04399 32994 ft 388 kts 220°
2026-05-07 17:47 43.93031 9.00122 32988 ft 388 kts 220°
2026-05-07 17:47 43.88597 8.95848 32987 ft 388 kts 220°
2026-05-07 17:48 43.84161 8.91579 32975 ft 387 kts 220°
2026-05-07 17:48 43.79780 8.87265 32984 ft 385 kts 223°
2026-05-07 17:49 43.75602 8.82643 32985 ft 384 kts 224°
2026-05-07 17:49 43.71429 8.78020 32988 ft 384 kts 224°
2026-05-07 17:50 43.67272 8.73439 32977 ft 385 kts 224°
2026-05-07 17:50 43.63082 8.68837 32984 ft 385 kts 224°
2026-05-07 17:51 43.58893 8.64243 32986 ft 384 kts 224°
2026-05-07 17:51 43.54704 8.59656 32984 ft 384 kts 224°
2026-05-07 17:52 43.50511 8.55077 32953 ft 384 kts 223°
2026-05-07 17:52 43.46310 8.50496 32970 ft 385 kts 223°
2026-05-07 17:53 43.42110 8.45920 32977 ft 385 kts 223°
2026-05-07 17:53 43.37906 8.41351 32977 ft 385 kts 223°
2026-05-07 17:54 43.33703 8.36793 32978 ft 385 kts 223°
2026-05-07 17:54 43.29537 8.32286 32975 ft 383 kts 222°
2026-05-07 17:55 43.25348 8.27759 32975 ft 383 kts 222°
2026-05-07 17:55 43.21159 8.23239 32979 ft 383 kts 222°
2026-05-07 17:56 43.16975 8.18732 32979 ft 383 kts 222°
2026-05-07 17:56 43.12787 8.14231 32960 ft 381 kts 222°
2026-05-07 17:57 43.09335 8.10528 32976 ft 379 kts 222°
2026-05-07 17:57 43.04481 8.05330 32978 ft 379 kts 222°
2026-05-07 17:58 43.00330 8.00890 32979 ft 379 kts 222°
2026-05-07 17:58 42.96173 7.96454 32994 ft 379 kts 221°
2026-05-07 17:59 42.92022 7.92031 32976 ft 378 kts 221°
2026-05-07 17:59 42.87870 7.87615 32981 ft 378 kts 221°
2026-05-07 18:00 42.83749 7.83241 32982 ft 378 kts 221°
2026-05-07 18:00 42.79599 7.78844 32981 ft 378 kts 221°
2026-05-07 18:01 42.75445 7.74448 32960 ft 378 kts 220°
2026-05-07 18:01 42.71286 7.70054 32975 ft 378 kts 220°
2026-05-07 18:02 42.65051 7.63482 32976 ft 378 kts 220°
2026-05-07 18:03 42.60893 7.59112 32984 ft 378 kts 220°
2026-05-07 18:03 42.56732 7.54756 32977 ft 377 kts 220°
2026-05-07 18:04 42.52605 7.50431 32977 ft 377 kts 220°
2026-05-07 18:04 42.48447 7.46079 32979 ft 377 kts 220°
2026-05-07 18:05 42.44289 7.41734 32975 ft 377 kts 220°
2026-05-07 18:05 42.40129 7.37398 32974 ft 377 kts 220°
2026-05-07 18:06 42.35970 7.33067 32957 ft 377 kts 219°
2026-05-07 18:06 42.31810 7.28747 32971 ft 377 kts 219°
2026-05-07 18:07 42.27646 7.24431 32974 ft 377 kts 219°
2026-05-07 18:07 42.23486 7.20123 32972 ft 377 kts 219°
2026-05-07 18:08 42.19317 7.15815 32971 ft 377 kts 219°
2026-05-07 18:08 42.15173 7.11544 32975 ft 377 kts 219°
2026-05-07 18:09 42.11006 7.07252 32972 ft 377 kts 219°
2026-05-07 18:09 42.06838 7.02965 32978 ft 377 kts 219°
2026-05-07 18:10 42.02673 6.98674 32973 ft 377 kts 220°
2026-05-07 18:10 41.98755 6.93991 32954 ft 376 kts 223°
2026-05-07 18:11 41.94893 6.89241 32974 ft 376 kts 223°
2026-05-07 18:11 41.91025 6.84500 32968 ft 377 kts 223°
2026-05-07 18:12 41.87144 6.79749 32972 ft 377 kts 223°
2026-05-07 18:12 41.83261 6.75008 32967 ft 378 kts 223°
2026-05-07 18:13 41.79396 6.70298 32966 ft 378 kts 223°
2026-05-07 18:13 41.75500 6.65560 32955 ft 378 kts 222°
2026-05-07 18:14 41.71604 6.60827 32962 ft 378 kts 222°
2026-05-07 18:14 41.67695 6.56088 32967 ft 379 kts 222°
2026-05-07 18:15 41.63790 6.51355 32963 ft 379 kts 222°
2026-05-07 18:15 41.59878 6.46625 32967 ft 379 kts 222°
2026-05-07 18:16 41.55956 6.41895 32960 ft 380 kts 221°
2026-05-07 18:16 41.52024 6.37160 32959 ft 381 kts 221°
2026-05-07 18:17 41.48116 6.32464 32966 ft 381 kts 221°
2026-05-07 18:17 41.44176 6.27735 32957 ft 381 kts 221°
2026-05-07 18:18 41.40229 6.23014 32970 ft 381 kts 221°
2026-05-07 18:18 41.36261 6.18269 32954 ft 385 kts 221°
2026-05-07 18:19 41.32275 6.13508 32970 ft 385 kts 221°
2026-05-07 18:19 41.28303 6.08773 32978 ft 385 kts 221°
2026-05-07 18:20 41.24311 6.04029 32954 ft 385 kts 220°
2026-05-07 18:20 41.20323 5.99289 32962 ft 385 kts 220°
2026-05-07 18:21 41.16307 5.94533 32950 ft 389 kts 220°
2026-05-07 18:21 41.12267 5.89747 32956 ft 389 kts 220°
2026-05-07 18:22 41.08228 5.84973 32966 ft 389 kts 220°
2026-05-07 18:22 41.04175 5.80197 32966 ft 389 kts 220°
2026-05-07 18:23 41.00124 5.75442 32954 ft 389 kts 220°
2026-05-07 18:23 40.96091 5.70703 32976 ft 391 kts 221°
2026-05-07 18:24 40.92571 5.65217 32955 ft 394 kts 232°
2026-05-07 18:24 40.89433 5.59279 32953 ft 394 kts 232°
2026-05-07 18:25 40.86276 5.53360 32954 ft 394 kts 232°
2026-05-07 18:25 40.83105 5.47460 32949 ft 394 kts 232°
2026-05-07 18:26 40.79927 5.41567 32945 ft 394 kts 232°
2026-05-07 18:26 40.76745 5.35672 32932 ft 395 kts 232°
2026-05-07 18:27 40.73585 5.29814 32968 ft 392 kts 232°
2026-05-07 18:27 40.70413 5.23955 32951 ft 392 kts 232°
2026-05-07 18:28 40.67235 5.18099 32951 ft 392 kts 232°
2026-05-07 18:28 40.64070 5.12267 32949 ft 391 kts 232°
2026-05-07 18:29 40.60904 5.06455 32949 ft 391 kts 232°
2026-05-07 18:29 40.57740 5.00637 32951 ft 391 kts 232°
2026-05-07 18:30 40.54584 4.94865 32970 ft 390 kts 232°
2026-05-07 18:30 40.51417 4.89088 32950 ft 389 kts 232°
2026-05-07 18:31 40.48255 4.83322 32948 ft 389 kts 232°
2026-05-07 18:31 40.45095 4.77565 32945 ft 389 kts 231°
2026-05-07 18:32 40.42465 4.72780 32946 ft 389 kts 232°
2026-05-07 18:32 40.39292 4.67027 32945 ft 389 kts 231°
2026-05-07 18:33 40.36114 4.61274 32933 ft 390 kts 232°
2026-05-07 18:33 40.32932 4.55508 32960 ft 391 kts 232°
2026-05-07 18:34 40.29740 4.49732 32943 ft 391 kts 232°
2026-05-07 18:34 40.26559 4.44005 32912 ft 390 kts 232°
2026-05-07 18:34 40.24971 4.41145 32150 ft 390 kts 231°
2026-05-07 18:35 40.23366 4.38263 31415 ft 389 kts 231°
2026-05-07 18:35 40.21785 4.35428 30881 ft 384 kts 231°
2026-05-07 18:35 40.20221 4.32630 30417 ft 377 kts 231°
2026-05-07 18:35 40.18686 4.29887 29967 ft 370 kts 231°
2026-05-07 18:36 40.17175 4.27189 29425 ft 364 kts 231°
2026-05-07 18:36 40.15688 4.24538 28924 ft 360 kts 231°
2026-05-07 18:36 40.14217 4.21909 28454 ft 355 kts 231°
2026-05-07 18:36 40.12768 4.19317 28026 ft 351 kts 231°
2026-05-07 18:37 40.11337 4.16761 27584 ft 347 kts 232°
2026-05-07 18:37 40.09939 4.14262 27142 ft 343 kts 232°
2026-05-07 18:37 40.08534 4.11764 26705 ft 340 kts 232°
2026-05-07 18:37 40.07142 4.09285 26254 ft 337 kts 232°
2026-05-07 18:38 40.05764 4.06829 25831 ft 334 kts 232°
2026-05-07 18:38 40.04394 4.04395 25404 ft 331 kts 232°
2026-05-07 18:38 40.03037 4.01980 25003 ft 329 kts 232°
2026-05-07 18:38 40.01686 3.99583 24579 ft 327 kts 232°
2026-05-07 18:39 40.00338 3.97194 24154 ft 327 kts 232°
2026-05-07 18:39 39.98993 3.94810 23724 ft 326 kts 232°
2026-05-07 18:39 39.97652 3.92436 23226 ft 324 kts 232°
2026-05-07 18:39 39.96314 3.90068 22738 ft 324 kts 233°
2026-05-07 18:40 39.94982 3.87712 22280 ft 322 kts 233°
2026-05-07 18:40 39.93651 3.85364 21842 ft 320 kts 233°
2026-05-07 18:40 39.92355 3.83074 21420 ft 317 kts 233°
2026-05-07 18:40 39.91047 3.80765 21019 ft 316 kts 232°
2026-05-07 18:41 39.89742 3.78459 20623 ft 317 kts 232°
2026-05-07 18:41 39.88431 3.76147 20234 ft 317 kts 232°
2026-05-07 18:41 39.87118 3.73842 19841 ft 317 kts 231°
2026-05-07 18:41 39.85806 3.71542 19451 ft 317 kts 231°
2026-05-07 18:42 39.84494 3.69231 19083 ft 317 kts 231°
2026-05-07 18:42 39.83183 3.66927 18707 ft 317 kts 231°
2026-05-07 18:42 39.81867 3.64618 18337 ft 317 kts 231°
2026-05-07 18:42 39.80526 3.62264 18005 ft 337 kts 231°
2026-05-07 18:43 39.79121 3.59804 17624 ft 337 kts 231°
2026-05-07 18:43 39.77736 3.57378 17230 ft 331 kts 231°
2026-05-07 18:43 39.76367 3.54980 16844 ft 330 kts 231°
2026-05-07 18:43 39.75002 3.52595 16465 ft 328 kts 231°
2026-05-07 18:44 39.73641 3.50215 16105 ft 328 kts 231°
2026-05-07 18:44 39.72281 3.47839 15728 ft 327 kts 231°
2026-05-07 18:44 39.70921 3.45471 15349 ft 327 kts 231°
2026-05-07 18:44 39.69616 3.43042 14992 ft 329 kts 237°
2026-05-07 18:45 39.68543 3.40413 14613 ft 330 kts 241°
2026-05-07 18:45 39.67517 3.37737 14223 ft 332 kts 242°
2026-05-07 18:45 39.66487 3.35043 13828 ft 334 kts 242°
2026-05-07 18:45 39.65451 3.32336 13391 ft 336 kts 242°
2026-05-07 18:46 39.64421 3.29652 12991 ft 336 kts 242°
2026-05-07 18:46 39.63378 3.26945 12615 ft 333 kts 241°
2026-05-07 18:46 39.62356 3.24295 12366 ft 322 kts 242°
2026-05-07 18:46 39.61379 3.21745 12188 ft 310 kts 242°
2026-05-07 18:47 39.60441 3.19292 11990 ft 296 kts 242°
2026-05-07 18:47 39.59541 3.16955 11826 ft 283 kts 241°
2026-05-07 18:47 39.58677 3.14719 11692 ft 271 kts 241°
2026-05-07 18:47 39.57850 3.12591 11540 ft 259 kts 240°
2026-05-07 18:48 39.57041 3.10528 11179 ft 255 kts 240°
2026-05-07 18:48 39.56244 3.08487 10764 ft 253 kts 241°
2026-05-07 18:48 39.55454 3.06458 10352 ft 252 kts 240°
2026-05-07 18:48 39.54665 3.04437 9946 ft 250 kts 242°
2026-05-07 18:49 39.53882 3.02424 9495 ft 250 kts 241°
2026-05-07 18:49 39.53100 3.00410 9077 ft 249 kts 242°
2026-05-07 18:49 39.52326 2.98420 8675 ft 247 kts 242°
2026-05-07 18:49 39.51560 2.96449 8317 ft 244 kts 242°
2026-05-07 18:50 39.50797 2.94492 7916 ft 243 kts 242°
2026-05-07 18:50 39.50034 2.92538 7482 ft 243 kts 242°
2026-05-07 18:50 39.49288 2.90619 7077 ft 241 kts 241°
2026-05-07 18:50 39.48533 2.88688 6680 ft 240 kts 241°
2026-05-07 18:51 39.47776 2.86764 6302 ft 239 kts 241°
2026-05-07 18:51 39.47028 2.84859 5967 ft 238 kts 241°
2026-05-07 18:51 39.46282 2.82955 5659 ft 237 kts 242°
2026-05-07 18:51 39.45544 2.81070 5394 ft 234 kts 241°
2026-05-07 18:52 39.44807 2.79190 5112 ft 235 kts 241°
2026-05-07 18:52 39.44073 2.77313 4819 ft 233 kts 241°
2026-05-07 18:52 39.43433 2.75347 4483 ft 238 kts 255°
2026-05-07 18:52 39.43179 2.73253 4164 ft 234 kts 262°
2026-05-07 18:53 39.42995 2.71173 3835 ft 230 kts 262°
2026-05-07 18:53 39.42808 2.69106 3543 ft 232 kts 262°
2026-05-07 18:53 39.42607 2.67034 3316 ft 230 kts 262°
2026-05-07 18:53 39.42414 2.65035 3130 ft 216 kts 263°
2026-05-07 18:54 39.42227 2.63080 3243 ft 220 kts 262°
2026-05-07 18:54 39.42032 2.61115 3075 ft 221 kts 263°
2026-05-07 18:54 39.41837 2.59176 2826 ft 214 kts 262°
2026-05-07 18:54 39.41713 2.57297 2563 ft 206 kts 276°
2026-05-07 18:55 39.42078 2.55553 2312 ft 198 kts 292°
2026-05-07 18:55 39.42717 2.54026 2037 ft 189 kts 314°
2026-05-07 18:55 39.43739 2.53095 1813 ft 173 kts 343°
2026-05-07 18:55 39.44893 2.52912 1694 ft 177 kts
2026-05-07 18:56 39.46050 2.53413 1678 ft 175 kts 35°
2026-05-07 18:56 39.46902 2.54552 1702 ft 174 kts 54°
2026-05-07 18:56 39.47542 2.55857 1705 ft 173 kts 60°
2026-05-07 18:56 39.48164 2.57186 1714 ft 172 kts 59°
2026-05-07 18:57 39.48790 2.58515 1719 ft 172 kts 59°
2026-05-07 18:57 39.49399 2.59803 1699 ft 160 kts 58°
2026-05-07 18:57 39.49953 2.60978 1683 ft 147 kts 60°
2026-05-07 18:57 39.50449 2.62025 1620 ft 132 kts 59°
2026-05-07 18:58 39.50922 2.63028 1466 ft 129 kts 57°
2026-05-07 18:58 39.51394 2.64031 1281 ft 132 kts 58°
2026-05-07 18:58 39.51869 2.65035 1103 ft 129 kts 57°
2026-05-07 18:58 39.52339 2.66028 924 ft 132 kts 59°
2026-05-07 18:59 39.52827 2.67038 757 ft 134 kts 57°
2026-05-07 18:59 39.53311 2.68078 628 ft 135 kts 59°
2026-05-07 18:59 39.53787 2.69089 386 ft 133 kts 57°
2026-05-07 18:59 39.54258 2.70101 231 ft 127 kts 56°
2026-05-07 19:00 39.54725 2.71090 83 ft 132 kts 57°
2026-05-07 19:00 39.55169 2.72028 44 ft 110 kts 58°
2026-05-07 19:00 39.55477 2.72678 44 ft 59 kts 58°
2026-05-07 19:00 39.55627 2.72993 44 ft 35 kts 58°
2026-05-07 19:01 39.55711 2.73229 44 ft 25 kts 84°
2026-05-07 19:01 39.55721 2.73436 44 ft 14 kts 87°
2026-05-07 19:01 39.55722 2.73500 44 ft 2 kts 90°
2026-05-07 19:01 39.55714 2.73524 42 ft 4 kts 137°
2026-05-07 19:02 39.55684 2.73536 44 ft 6 kts 196°
2026-05-07 19:02 39.55656 2.73505 44 ft 4 kts 229°
2026-05-07 19:02 39.55625 2.73497 43 ft 6 kts 157°
2026-05-07 19:02 39.55584 2.73527 43 ft 8 kts 147°
2026-05-07 19:03 39.55533 2.73569 44 ft 9 kts 148°
2026-05-07 19:03 39.55482 2.73526 44 ft 11 kts 239°
2026-05-07 19:03 39.55435 2.73450 44 ft 11 kts 176°
2026-05-07 19:03 39.55359 2.73490 44 ft 13 kts 146°
2026-05-07 19:04 39.55280 2.73555 44 ft 14 kts 148°
2026-05-07 19:04 39.55190 2.73625 44 ft 16 kts 149°
2026-05-07 19:04 39.55110 2.73548 44 ft 17 kts 238°
2026-05-07 19:04 39.55049 2.73418 44 ft 15 kts 239°
2026-05-07 19:05 39.55014 2.73381 44 ft 4 kts 158°
2026-05-07 19:05 39.55005 2.73384 44 ft 2 kts 166°
2026-05-07 19:05 39.54985 2.73391 42 ft 3 kts 164°